Location: Edoum�
(0.9447°N, 10.6482°E)
Time: 14:29:35
(UTC+00:00)

USA 234 - Pass Details

Date: 07 June 2020
Orbit: 1102 x 1106 km, 123.0° (Epoch: 14 May)

Event Time Altitude Azimuth Distance (km) Brightness Sun altitude
Rises 02:47:13 0° 30° (NNE) 3,902 6.9 -33.5°
Reaches altitude 10° 02:49:43 10° 27° (NNE) 2,947 6.1 -33.0°
Enters shadow 02:55:34 61° 333° (NNW) 1,230 3.4 -31.7°
